User: anonymous   Login
Location: Eymir
(36.7333°N, 29.7833°E)
Time: 00:32:42
(UTC+00:00)
Language:

Cosmos 1140 Rocket - Orbit

View from above orbital plane
View from above orbital plane
View from above satellite
View from above satellite

Ground track
Ground track

The orbit is defined by the following mean orbital elements,

1 11574U          26065.34689451 +.00000000 +00000-0 +11812-3 0 00006
2 11574  74.0671  97.2326 0017147 270.2411  89.6780 14.42348128    06
Epoch (UTC): 06 March 2026 08:19:31
Eccentricity: 0.0017147
inclination: 74.0671°
perigee height: 739 km
apogee height: 763 km
right ascension of ascending node: 97.2326°
argument of perigee: 270.2411°
revolutions per day: 14.42348128
mean anomaly at epoch: 89.6780°

The dashed part of the orbit path shows where the satellite is in the earth's shadow,  

DLR